QPF
0.13 0.19 0.23 0.20 0.18 0.15 0.16 0.19 0.14 0.11 0.14 0.17 0.14 0.10 0.11 0.11 0.09 0.10 0.10 0.09 0.07 0.07 0.07 0.07 0.06 0.09 0.08 0.07 0.07 0.07 0.10 0.14 0.17 0.15 0.12 0.10 0.11 0.15 0.15 0.13 0.12 0.11 0.12
0.11 0.14 0.18 0.16 0.17 0.17 0.20 0.18 0.12 0.11 0.13 0.17 0.19 0.13 0.11 0.10 0.08 0.09 0.08 0.07 0.08 0.08 0.07 0.08 0.08 0.08 0.08 0.07 0.07 0.07 0.12 0.13 0.14 0.14 0.12 0.10 0.10 0.12 0.16 0.19 0.18 0.14 0.11
0.12 0.14 0.16 0.20 0.23 0.26 0.24 0.16 0.13 0.09 0.12 0.15 0.17 0.17 0.12 0.11 0.11 0.11 0.09 0.08 0.08 0.07 0.06 0.08 0.07 0.07 0.08 0.07 0.05 0.10 0.17 0.12 0.10 0.10 0.09 0.08 0.09 0.10 0.11 0.18 0.21 0.14 0.10
0.15 0.21 0.25 0.28 0.26 0.19 0.14 0.14 0.15 0.11 0.10 0.12 0.14 0.22 0.20 0.15 0.13 0.12 0.10 0.09 0.09 0.07 0.05 0.06 0.06 0.07 0.06 0.05 0.05 0.10 0.20 0.16 0.10 0.08 0.08 0.08 0.09 0.10 0.12 0.14 0.15 0.12 0.11
0.09 0.14 0.17 0.20 0.16 0.11 0.10 0.11 0.14 0.13 0.10 0.11 0.12 0.21 0.25 0.19 0.13 0.12 0.12 0.10 0.08 0.07 0.05 0.05 0.06 0.06 0.06 0.05 0.05 0.08 0.12 0.15 0.11 0.07 0.08 0.07 0.08 0.11 0.14 0.14 0.14 0.10 0.10
0.06 0.09 0.09 0.10 0.10 0.08 0.09 0.10 0.12 0.10 0.08 0.09 0.11 0.15 0.21 0.21 0.14 0.12 0.13 0.09 0.08 0.07 0.06 0.06 0.06 0.05 0.05 0.05 0.06 0.07 0.07 0.09 0.07 0.06 0.07 0.05 0.07 0.10 0.11 0.13 0.14 0.09 0.08
0.06 0.10 0.09 0.08 0.07 0.07 0.08 0.09 0.10 0.09 0.08 0.07 0.08 0.10 0.16 0.20 0.17 0.14 0.10 0.07 0.08 0.08 0.07 0.06 0.05 0.06 0.06 0.06 0.06 0.06 0.05 0.06 0.06 0.06 0.06 0.07 0.07 0.08 0.10 0.13 0.13 0.09 0.08
0.05 0.08 0.09 0.08 0.06 0.06 0.07 0.07 0.08 0.08 0.07 0.06 0.07 0.10 0.12 0.17 0.15 0.11 0.08 0.07 0.07 0.08 0.08 0.06 0.04 0.04 0.06 0.06 0.05 0.04 0.04 0.03 0.04 0.06 0.07 0.08 0.06 0.08 0.11 0.13 0.15 0.09 0.08
0.03 0.05 0.07 0.07 0.06 0.06 0.06 0.06 0.07 0.08 0.07 0.06 0.07 0.09 0.08 0.08 0.07 0.08 0.07 0.08 0.08 0.08 0.07 0.05 0.05 0.04 0.05 0.05 0.05 0.05 0.04 0.03 0.05 0.07 0.06 0.07 0.07 0.08 0.09 0.11 0.17 0.10 0.08
0.03 0.04 0.05 0.05 0.05 0.06 0.07 0.06 0.07 0.07 0.06 0.05 0.06 0.08 0.09 0.07 0.06 0.07 0.05 0.08 0.08 0.06 0.06 0.05 0.05 0.04 0.04 0.05 0.05 0.04 0.04 0.03 0.04 0.06 0.08 0.08 0.08 0.09 0.10 0.11 0.15 0.11 0.08
0.10 0.11 0.10 0.06 0.06 0.06 0.06 0.06 0.09 0.08 0.06 0.05 0.06 0.07 0.07 0.06 0.07 0.08 0.07 0.06 0.06 0.06 0.07 0.06 0.05 0.07 0.06 0.06 0.07 0.04 0.02 0.02 0.03 0.05 0.07 0.05 0.09 0.13 0.13 0.11 0.14 0.12 0.07
0.20 0.24 0.21 0.10 0.07 0.05 0.04 0.06 0.07 0.05 0.05 0.07 0.08 0.07 0.06 0.06 0.10 0.11 0.07 0.07 0.07 0.07 0.07 0.08 0.07 0.07 0.07 0.07 0.07 0.05 0.03 0.02 0.02 0.04 0.04 0.05 0.09 0.12 0.11 0.10 0.11 0.09 0.07
0.17 0.21 0.17 0.09 0.07 0.04 0.04 0.04 0.04 0.04 0.05 0.06 0.07 0.09 0.08 0.08 0.13 0.12 0.09 0.09 0.08 0.06 0.07 0.07 0.07 0.08 0.07 0.08 0.07 0.06 0.03 0.01 0.03 0.03 0.02 0.02 0.03 0.06 0.07 0.09 0.10 0.12 0.10
0.09 0.09 0.09 0.07 0.05 0.03 0.03 0.03 0.03 0.03 0.04 0.05 0.07 0.09 0.08 0.09 0.13 0.11 0.08 0.09 0.07 0.07 0.10 0.10 0.12 0.12 0.10 0.07 0.06 0.05 0.03 0.02 0.02 0.02 0.03 0.03 0.04 0.05 0.07 0.10 0.09 0.11 0.10
0.04 0.04 0.05 0.05 0.05 0.04 0.04 0.03 0.03 0.04 0.05 0.05 0.10 0.09 0.09 0.11 0.12 0.10 0.07 0.08 0.08 0.07 0.10 0.13 0.13 0.13 0.12 0.09 0.07 0.05 0.03 0.01 0.02 0.04 0.05 0.05 0.05 0.07 0.08 0.08 0.08 0.08 0.08
0.02 0.02 0.03 0.03 0.04 0.04 0.04 0.04 0.03 0.03 0.04 0.05 0.10 0.08 0.09 0.10 0.07 0.06 0.05 0.07 0.08 0.07 0.08 0.10 0.09 0.11 0.12 0.08 0.05 0.04 0.04 0.04 0.07 0.07 0.07 0.06 0.04 0.03 0.05 0.05 0.05 0.06 0.07
0.02 0.01 0.02 0.02 0.03 0.03 0.02 0.04 0.03 0.04 0.04 0.08 0.08 0.06 0.07 0.06 0.04 0.05 0.06 0.06 0.06 0.06 0.06 0.07 0.07 0.09 0.10 0.07 0.05 0.05 0.06 0.06 0.08 0.07 0.06 0.06 0.04 0.03 0.03 0.03 0.03 0.03 0.04
0.02 0.01 0.01 0.01 0.02 0.03 0.06 0.07 0.04 0.04 0.06 0.06 0.05 0.04 0.04 0.04 0.04 0.06 0.06 0.06 0.06 0.07 0.08 0.09 0.09 0.10 0.10 0.09 0.08 0.07 0.07 0.05 0.05 0.06 0.03 0.03 0.04 0.04 0.04 0.03 0.02 0.02 0.04
0.01 0.01 0.01 0.01 0.01 0.03 0.05 0.04 0.03 0.04 0.05 0.05 0.04 0.03 0.04 0.04 0.04 0.04 0.06 0.08 0.06 0.07 0.09 0.09 0.09 0.10 0.11 0.09 0.07 0.06 0.05 0.04 0.04 0.04 0.03 0.03 0.02 0.03 0.04 0.04 0.03 0.03 0.03
0.00 0.01 0.01 0.01 0.02 0.03 0.03 0.04 0.04 0.03 0.05 0.07 0.07 0.06 0.05 0.05 0.05 0.06 0.06 0.07 0.06 0.07 0.07 0.07 0.07 0.08 0.09 0.08 0.03 0.03 0.03 0.02 0.02 0.03 0.03 0.02 0.03 0.04 0.04 0.04 0.06 0.05 0.04
0.01 0.01 0.01 0.02 0.04 0.05 0.05 0.06 0.05 0.03 0.04 0.06 0.07 0.07 0.06 0.04 0.05 0.06 0.05 0.08 0.07 0.07 0.06 0.05 0.06 0.06 0.06 0.05 0.03 0.02 0.01 0.01 0.01 0.01 0.02 0.02 0.02 0.02 0.03 0.04 0.04 0.05 0.05
0.01 0.01 0.01 0.02 0.04 0.04 0.04 0.05 0.03 0.03 0.03 0.03 0.04 0.06 0.06 0.05 0.04 0.04 0.05 0.06 0.06 0.06 0.05 0.05 0.06 0.07 0.04 0.04 0.05 0.04 0.03 0.02 0.02 0.01 0.01 0.02 0.02 0.02 0.03 0.03 0.04 0.05 0.05
0.01 0.01 0.00 0.01 0.02 0.02 0.02 0.02 0.02 0.02 0.03 0.02 0.03 0.03 0.03 0.03 0.03 0.04 0.05 0.05 0.05 0.05 0.05 0.04 0.04 0.06 0.05 0.04 0.03 0.03 0.04 0.04 0.03 0.03 0.02 0.02 0.04 0.04 0.04 0.04 0.06 0.07 0.06
0.01 0.01 0.00 0.01 0.02 0.02 0.01 0.01 0.02 0.02 0.02 0.02 0.03 0.03 0.03 0.03 0.02 0.02 0.04 0.05 0.07 0.05 0.05 0.03 0.03 0.03 0.04 0.04 0.03 0.04 0.04 0.03 0.03 0.04 0.03 0.03 0.03 0.03 0.03 0.03 0.04 0.09 0.11
0.01 0.00 0.00 0.01 0.01 0.01 0.01 0.01 0.01 0.01 0.01 0.01 0.01 0.02 0.03 0.03 0.02 0.02 0.03 0.05 0.05 0.04 0.04 0.03 0.04 0.04 0.03 0.03 0.04 0.04 0.03 0.03 0.03 0.03 0.04 0.03 0.03 0.03 0.03 0.03 0.03 0.05 0.08
0.00 0.00 0.00 0.01 0.01 0.01 0.01 0.01 0.01 0.01 0.02 0.01 0.01 0.02 0.02 0.02 0.03 0.02 0.03 0.04 0.04 0.04 0.04 0.04 0.04 0.04 0.04 0.05 0.05 0.05 0.05 0.04 0.03 0.03 0.03 0.03 0.04 0.03 0.01 0.01 0.02 0.03 0.05
MSLP
1011.61 1011.49 1011.49 1011.60 1011.72 1011.79 1011.76 1011.62 1011.40 1011.14 1010.91 1010.74 1010.63 1010.56 1010.45 1010.25 1009.91 1009.43 1008.85 1008.24 1007.70 1007.27 1007.00 1006.87 1006.84 1006.85 1006.84 1006.79 1006.73 1006.70 1006.75 1006.94 1007.27 1007.75 1008.31 1008.89 1009.44 1009.93 1010.38 1010.81 1011.27 1011.81 1012.42
1011.71 1011.65 1011.71 1011.87 1012.06 1012.19 1012.20 1012.08 1011.85 1011.55 1011.27 1011.06 1010.94 1010.88 1010.82 1010.71 1010.46 1010.07 1009.54 1008.94 1008.36 1007.88 1007.56 1007.41 1007.42 1007.53 1007.67 1007.81 1007.91 1007.99 1008.07 1008.20 1008.39 1008.67 1009.02 1009.42 1009.86 1010.30 1010.77 1011.25 1011.78 1012.35 1012.96
1011.79 1011.77 1011.88 1012.11 1012.36 1012.56 1012.63 1012.55 1012.33 1012.02 1011.71 1011.46 1011.31 1011.24 1011.22 1011.17 1011.01 1010.70 1010.25 1009.70 1009.13 1008.63 1008.27 1008.08 1008.06 1008.16 1008.33 1008.49 1008.62 1008.70 1008.75 1008.81 1008.92 1009.11 1009.38 1009.75 1010.19 1010.69 1011.23 1011.79 1012.36 1012.93 1013.49
1011.84 1011.84 1011.99 1012.27 1012.59 1012.87 1013.02 1013.00 1012.82 1012.52 1012.19 1011.91 1011.73 1011.65 1011.63 1011.62 1011.53 1011.31 1010.95 1010.48 1009.97 1009.49 1009.13 1008.90 1008.83 1008.87 1008.97 1009.07 1009.14 1009.15 1009.14 1009.14 1009.20 1009.37 1009.66 1010.08 1010.61 1011.19 1011.81 1012.43 1013.01 1013.54 1014.00
1011.87 1011.87 1012.04 1012.35 1012.73 1013.08 1013.32 1013.38 1013.26 1013.00 1012.68 1012.38 1012.17 1012.06 1012.04 1012.04 1012.00 1011.86 1011.60 1011.23 1010.82 1010.41 1010.08 1009.85 1009.74 1009.71 1009.72 1009.72 1009.68 1009.59 1009.51 1009.46 1009.51 1009.71 1010.07 1010.57 1011.19 1011.86 1012.53 1013.15 1013.69 1014.12 1014.45
1011.90 1011.88 1012.04 1012.36 1012.79 1013.20 1013.52 1013.66 1013.62 1013.42 1013.13 1012.83 1012.60 1012.46 1012.41 1012.41 1012.39 1012.31 1012.14 1011.89 1011.58 1011.28 1011.02 1010.84 1010.72 1010.65 1010.58 1010.48 1010.34 1010.17 1010.02 1009.95 1010.01 1010.25 1010.68 1011.26 1011.95 1012.66 1013.34 1013.91 1014.35 1014.64 1014.83
1011.97 1011.90 1012.02 1012.34 1012.78 1013.23 1013.61 1013.83 1013.86 1013.72 1013.48 1013.21 1012.97 1012.81 1012.73 1012.71 1012.70 1012.65 1012.55 1012.39 1012.20 1012.01 1011.85 1011.74 1011.65 1011.58 1011.48 1011.32 1011.12 1010.89 1010.70 1010.62 1010.70 1010.98 1011.46 1012.10 1012.81 1013.52 1014.14 1014.62 1014.93 1015.08 1015.12
1012.09 1011.96 1012.04 1012.32 1012.75 1013.21 1013.61 1013.87 1013.96 1013.89 1013.70 1013.46 1013.24 1013.08 1012.98 1012.94 1012.91 1012.88 1012.81 1012.72 1012.62 1012.53 1012.47 1012.44 1012.42 1012.38 1012.29 1012.12 1011.90 1011.66 1011.47 1011.39 1011.49 1011.81 1012.31 1012.96 1013.66 1014.32 1014.85 1015.21 1015.39 1015.41 1015.34
1012.28 1012.10 1012.13 1012.37 1012.74 1013.17 1013.55 1013.82 1013.93 1013.90 1013.77 1013.58 1013.39 1013.24 1013.15 1013.09 1013.05 1013.01 1012.96 1012.90 1012.85 1012.84 1012.85 1012.90 1012.95 1012.97 1012.91 1012.78 1012.57 1012.36 1012.18 1012.13 1012.26 1012.59 1013.10 1013.73 1014.38 1014.97 1015.41 1015.66 1015.73 1015.66 1015.52
1012.53 1012.33 1012.32 1012.50 1012.80 1013.15 1013.47 1013.70 1013.80 1013.79 1013.69 1013.56 1013.42 1013.32 1013.25 1013.20 1013.16 1013.10 1013.04 1012.99 1012.96 1012.98 1013.04 1013.14 1013.24 1013.31 1013.31 1013.23 1013.07 1012.89 1012.76 1012.74 1012.88 1013.22 1013.72 1014.31 1014.91 1015.43 1015.80 1015.97 1015.98 1015.86 1015.71
1012.82 1012.63 1012.60 1012.72 1012.94 1013.19 1013.41 1013.56 1013.61 1013.59 1013.51 1013.42 1013.35 1013.31 1013.29 1013.28 1013.25 1013.19 1013.12 1013.06 1013.02 1013.03 1013.11 1013.23 1013.37 1013.48 1013.52 1013.49 1013.39 1013.26 1013.17 1013.18 1013.34 1013.67 1014.15 1014.70 1015.26 1015.72 1016.04 1016.19 1016.18 1016.07 1015.94
1013.11 1012.97 1012.95 1013.03 1013.16 1013.30 1013.40 1013.43 1013.41 1013.34 1013.27 1013.22 1013.22 1013.25 1013.30 1013.34 1013.35 1013.31 1013.24 1013.15 1013.09 1013.09 1013.15 1013.27 1013.41 1013.54 1013.62 1013.63 1013.58 1013.50 1013.44 1013.48 1013.65 1013.97 1014.42 1014.94 1015.45 1015.90 1016.20 1016.36 1016.37 1016.31 1016.23
1013.38 1013.32 1013.33 1013.38 1013.44 1013.47 1013.44 1013.36 1013.24 1013.11 1013.03 1013.01 1013.06 1013.16 1013.29 1013.40 1013.46 1013.46 1013.40 1013.31 1013.24 1013.21 1013.24 1013.34 1013.48 1013.62 1013.71 1013.75 1013.74 1013.69 1013.67 1013.71 1013.88 1014.18 1014.60 1015.09 1015.58 1016.01 1016.33 1016.52 1016.59 1016.58 1016.57
1013.60 1013.63 1013.69 1013.74 1013.75 1013.68 1013.55 1013.35 1013.14 1012.95 1012.84 1012.83 1012.92 1013.09 1013.29 1013.47 1013.59 1013.63 1013.60 1013.53 1013.45 1013.41 1013.43 1013.51 1013.63 1013.77 1013.87 1013.93 1013.94 1013.92 1013.91 1013.96 1014.11 1014.38 1014.77 1015.22 1015.68 1016.11 1016.44 1016.67 1016.80 1016.86 1016.90
1013.75 1013.87 1013.98 1014.05 1014.04 1013.92 1013.70 1013.43 1013.14 1012.91 1012.76 1012.75 1012.85 1013.05 1013.30 1013.53 1013.71 1013.80 1013.81 1013.77 1013.71 1013.68 1013.69 1013.77 1013.89 1014.02 1014.13 1014.20 1014.22 1014.21 1014.21 1014.26 1014.38 1014.62 1014.95 1015.36 1015.79 1016.20 1016.54 1016.80 1016.98 1017.09 1017.17
1013.84 1014.03 1014.20 1014.29 1014.28 1014.15 1013.90 1013.60 1013.27 1013.00 1012.83 1012.80 1012.90 1013.09 1013.35 1013.60 1013.81 1013.94 1014.00 1013.99 1013.97 1013.97 1014.00 1014.09 1014.21 1014.35 1014.47 1014.55 1014.58 1014.58 1014.58 1014.61 1014.70 1014.89 1015.16 1015.51 1015.88 1016.26 1016.59 1016.86 1017.06 1017.20 1017.30
1013.89 1014.12 1014.32 1014.45 1014.46 1014.36 1014.13 1013.84 1013.52 1013.25 1013.06 1013.00 1013.07 1013.23 1013.46 1013.69 1013.90 1014.05 1014.14 1014.18 1014.21 1014.24 1014.31 1014.42 1014.56 1014.71 1014.84 1014.93 1014.97 1014.98 1014.96 1014.97 1015.03 1015.16 1015.36 1015.62 1015.93 1016.24 1016.53 1016.79 1016.99 1017.14 1017.26
1013.92 1014.16 1014.38 1014.53 1014.59 1014.54 1014.38 1014.14 1013.88 1013.63 1013.44 1013.35 1013.37 1013.48 1013.64 1013.83 1014.00 1014.15 1014.26 1014.33 1014.40 1014.48 1014.59 1014.73 1014.89 1015.05 1015.19 1015.28 1015.33 1015.33 1015.31 1015.30 1015.31 1015.38 1015.50 1015.68 1015.90 1016.13 1016.36 1016.57 1016.76 1016.92 1017.06
1013.95 1014.17 1014.39 1014.56 1014.67 1014.69 1014.62 1014.48 1014.29 1014.10 1013.93 1013.82 1013.79 1013.82 1013.90 1014.02 1014.14 1014.26 1014.37 1014.47 1014.58 1014.70 1014.84 1015.00 1015.18 1015.34 1015.48 1015.57 1015.62 1015.62 1015.59 1015.55 1015.53 1015.53 1015.58 1015.66 1015.78 1015.92 1016.08 1016.24 1016.40 1016.56 1016.73
1013.98 1014.17 1014.37 1014.55 1014.71 1014.81 1014.85 1014.82 1014.73 1014.61 1014.47 1014.36 1014.27 1014.23 1014.23 1014.26 1014.33 1014.42 1014.52 1014.64 1014.77 1014.92 1015.08 1015.26 1015.43 1015.58 1015.70 1015.78 1015.82 1015.81 1015.78 1015.73 1015.67 1015.62 1015.59 1015.59 1015.61 1015.65 1015.73 1015.84 1015.97 1016.14 1016.34
1014.00 1014.15 1014.32 1014.52 1014.71 1014.89 1015.03 1015.11 1015.12 1015.08 1015.00 1014.88 1014.76 1014.66 1014.59 1014.56 1014.57 1014.63 1014.72 1014.85 1015.00 1015.17 1015.34 1015.51 1015.66 1015.78 1015.88 1015.93 1015.95 1015.94 1015.90 1015.84 1015.76 1015.67 1015.59 1015.51 1015.44 1015.40 1015.40 1015.45 1015.56 1015.74 1015.97
1013.98 1014.10 1014.26 1014.46 1014.69 1014.92 1015.14 1015.32 1015.43 1015.47 1015.43 1015.33 1015.20 1015.06 1014.94 1014.86 1014.84 1014.88 1014.97 1015.11 1015.27 1015.45 1015.61 1015.76 1015.88 1015.97 1016.02 1016.05 1016.05 1016.03 1015.99 1015.93 1015.84 1015.74 1015.61 1015.48 1015.34 1015.23 1015.15 1015.15 1015.23 1015.41 1015.67
1013.90 1014.02 1014.17 1014.37 1014.62 1014.90 1015.18 1015.43 1015.61 1015.71 1015.72 1015.65 1015.52 1015.37 1015.23 1015.13 1015.10 1015.14 1015.24 1015.39 1015.57 1015.75 1015.90 1016.02 1016.10 1016.14 1016.15 1016.14 1016.12 1016.10 1016.07 1016.03 1015.96 1015.85 1015.71 1015.54 1015.35 1015.18 1015.04 1014.99 1015.04 1015.20 1015.48
1013.75 1013.89 1014.05 1014.26 1014.52 1014.82 1015.14 1015.43 1015.66 1015.81 1015.85 1015.80 1015.69 1015.54 1015.41 1015.32 1015.30 1015.36 1015.48 1015.65 1015.84 1016.02 1016.15 1016.24 1016.28 1016.27 1016.25 1016.21 1016.18 1016.17 1016.16 1016.15 1016.11 1016.03 1015.89 1015.70 1015.48 1015.26 1015.08 1014.97 1014.98 1015.12 1015.39
1013.51 1013.71 1013.90 1014.12 1014.39 1014.70 1015.03 1015.33 1015.59 1015.76 1015.83 1015.81 1015.71 1015.59 1015.48 1015.41 1015.41 1015.50 1015.65 1015.84 1016.04 1016.21 1016.33 1016.39 1016.39 1016.36 1016.30 1016.25 1016.22 1016.23 1016.26 1016.28 1016.29 1016.24 1016.12 1015.93 1015.70 1015.44 1015.22 1015.06 1015.02 1015.11 1015.35
1013.22 1013.48 1013.72 1013.96 1014.24 1014.54 1014.87 1015.17 1015.43 1015.61 1015.70 1015.70 1015.63 1015.52 1015.43 1015.39 1015.42 1015.53 1015.70 1015.91 1016.12 1016.29 1016.40 1016.44 1016.42 1016.36 1016.29 1016.23 1016.22 1016.25 1016.31 1016.39 1016.43 1016.43 1016.34 1016.17 1015.93 1015.65 1015.39 1015.19 1015.09 1015.14 1015.32
Thickness
5792 5793 5786 5786 5786 5785 5785 5784 5784 5783 5783 5783 5782 5782 5781 5780 5779 5779 5778 5778 5777 5777 5776 5775 5774 5774 5773 5772 5771 5771 5770 5769 5768 5767 5766 5764 5763 5761 5760 5759 5758 5757 5753
5793 5791 5785 5784 5784 5783 5783 5783 5783 5782 5781 5781 5780 5780 5779 5778 5778 5777 5777 5776 5775 5775 5774 5774 5773 5772 5771 5771 5769 5769 5768 5767 5766 5765 5764 5763 5762 5760 5758 5758 5757 5756 5752
5792 5790 5786 5783 5782 5782 5781 5781 5781 5781 5780 5779 5779 5778 5777 5776 5776 5775 5775 5774 5773 5773 5772 5772 5772 5771 5770 5769 5768 5767 5766 5766 5765 5764 5764 5765 5762 5759 5757 5756 5754 5752 5751
5790 5789 5786 5781 5780 5780 5780 5780 5779 5779 5779 5778 5777 5776 5775 5775 5774 5774 5773 5772 5772 5772 5771 5771 5770 5769 5768 5768 5767 5766 5765 5766 5765 5764 5766 5766 5763 5759 5756 5755 5753 5751 5750
5788 5786 5783 5780 5779 5779 5779 5778 5778 5778 5777 5777 5776 5775 5774 5774 5773 5772 5771 5771 5771 5770 5770 5769 5769 5768 5767 5766 5765 5765 5764 5765 5764 5765 5765 5764 5762 5758 5755 5753 5752 5750 5749
5787 5787 5782 5779 5778 5778 5778 5777 5777 5777 5776 5775 5775 5774 5773 5772 5771 5771 5770 5770 5770 5769 5769 5768 5767 5767 5766 5765 5764 5763 5763 5764 5764 5767 5765 5764 5761 5756 5754 5752 5751 5750 5748
5787 5785 5782 5778 5777 5777 5776 5776 5776 5775 5775 5774 5774 5773 5772 5771 5770 5770 5769 5769 5768 5768 5768 5767 5766 5766 5765 5764 5763 5763 5762 5763 5766 5766 5764 5763 5759 5755 5753 5751 5750 5749 5747
5787 5785 5782 5777 5777 5776 5775 5775 5775 5774 5774 5773 5773 5772 5771 5769 5769 5769 5768 5768 5768 5767 5767 5766 5765 5765 5764 5763 5762 5762 5762 5763 5766 5766 5764 5761 5757 5754 5752 5751 5750 5748 5746
5788 5786 5784 5783 5779 5777 5775 5775 5774 5773 5773 5772 5772 5771 5771 5770 5769 5768 5768 5767 5767 5766 5766 5765 5765 5764 5763 5763 5762 5761 5761 5763 5767 5766 5764 5761 5756 5754 5752 5750 5749 5747 5745
5789 5788 5786 5785 5783 5782 5779 5775 5774 5773 5772 5771 5771 5770 5770 5770 5769 5768 5768 5767 5766 5766 5765 5765 5764 5763 5763 5762 5761 5761 5761 5763 5766 5766 5763 5760 5756 5754 5752 5750 5749 5747 5745
5786 5788 5789 5788 5785 5784 5782 5778 5776 5773 5772 5772 5772 5770 5771 5773 5773 5771 5769 5767 5766 5766 5765 5764 5764 5763 5763 5762 5762 5761 5763 5767 5767 5766 5762 5757 5755 5753 5751 5750 5748 5746 5745
5782 5786 5788 5788 5786 5785 5783 5780 5779 5778 5775 5774 5773 5773 5774 5773 5773 5772 5768 5767 5767 5766 5766 5765 5764 5764 5765 5766 5764 5763 5766 5767 5767 5765 5760 5756 5754 5752 5751 5749 5748 5746 5745
5784 5786 5788 5787 5785 5785 5783 5782 5780 5778 5776 5775 5773 5773 5773 5774 5774 5773 5772 5770 5769 5769 5769 5767 5768 5769 5768 5767 5766 5766 5766 5767 5766 5765 5760 5755 5753 5751 5750 5749 5747 5746 5744
5785 5785 5787 5787 5785 5783 5783 5782 5780 5779 5777 5776 5773 5773 5774 5774 5773 5773 5772 5771 5771 5771 5769 5770 5769 5769 5767 5766 5766 5766 5766 5766 5764 5763 5758 5754 5752 5751 5749 5748 5747 5746 5744
5785 5786 5786 5786 5784 5782 5780 5780 5781 5779 5778 5776 5773 5773 5773 5774 5773 5773 5771 5771 5772 5772 5771 5770 5770 5768 5767 5766 5766 5765 5764 5763 5762 5761 5758 5753 5752 5750 5749 5748 5747 5745 5743
5786 5786 5787 5786 5784 5781 5780 5779 5779 5779 5777 5777 5774 5773 5772 5773 5773 5773 5772 5771 5772 5772 5771 5770 5769 5768 5768 5767 5765 5764 5763 5762 5760 5759 5758 5755 5752 5750 5748 5747 5746 5745 5743
5788 5788 5787 5786 5784 5782 5781 5780 5780 5779 5779 5777 5775 5773 5772 5773 5772 5772 5773 5772 5772 5771 5770 5769 5769 5769 5768 5767 5765 5764 5763 5761 5761 5758 5758 5757 5755 5751 5748 5747 5745 5744 5742
5791 5788 5788 5789 5785 5782 5781 5779 5781 5780 5779 5777 5776 5774 5772 5771 5771 5772 5773 5773 5771 5771 5771 5770 5770 5769 5767 5767 5765 5764 5763 5761 5759 5758 5758 5757 5755 5754 5749 5746 5744 5743 5742
5792 5789 5788 5788 5786 5784 5782 5780 5780 5779 5778 5778 5777 5776 5774 5772 5772 5773 5772 5771 5771 5772 5772 5772 5770 5768 5766 5765 5765 5763 5763 5761 5760 5759 5758 5757 5755 5753 5751 5746 5744 5742 5741
5794 5791 5789 5787 5785 5785 5784 5781 5781 5779 5780 5778 5778 5775 5774 5773 5773 5773 5773 5771 5772 5772 5770 5769 5767 5766 5765 5765 5766 5764 5763 5762 5761 5759 5758 5758 5755 5754 5752 5749 5746 5744 5741
5795 5792 5790 5788 5786 5784 5783 5781 5779 5779 5779 5779 5778 5776 5774 5774 5774 5773 5775 5772 5772 5772 5770 5770 5768 5766 5765 5765 5763 5761 5762 5763 5762 5760 5759 5758 5756 5754 5752 5749 5748 5746 5743
5797 5794 5791 5789 5788 5786 5784 5782 5781 5781 5781 5781 5779 5776 5775 5775 5774 5776 5773 5774 5773 5771 5769 5769 5767 5766 5766 5765 5762 5759 5756 5756 5758 5761 5759 5756 5755 5754 5752 5750 5747 5744 5743
5800 5798 5796 5793 5790 5788 5787 5786 5784 5781 5780 5780 5778 5777 5776 5775 5775 5774 5774 5774 5772 5773 5771 5769 5768 5765 5763 5765 5765 5761 5755 5752 5754 5756 5755 5755 5753 5752 5752 5750 5748 5745 5743
5805 5803 5799 5795 5793 5791 5789 5788 5785 5782 5780 5780 5780 5779 5778 5776 5776 5775 5774 5773 5773 5774 5771 5771 5770 5768 5764 5763 5763 5762 5761 5758 5752 5749 5753 5755 5753 5751 5750 5750 5748 5745 5742
5811 5807 5803 5798 5795 5793 5791 5789 5786 5785 5785 5785 5783 5780 5778 5778 5776 5776 5774 5773 5772 5773 5771 5770 5768 5768 5768 5765 5764 5763 5760 5758 5757 5751 5746 5749 5752 5752 5751 5749 5747 5746 5743
5814 5811 5807 5801 5796 5795 5792 5791 5788 5786 5785 5783 5781 5780 5779 5780 5778 5776 5775 5773 5772 5772 5770 5769 5768 5768 5766 5764 5764 5763 5760 5757 5755 5753 5748 5747 5747 5750 5750 5749 5747 5745 5743